EHI
0 0 0 0 0 0 0 0 0 0 0 0 0 0 0 0 0 0 0 0 0 0 0 0 0 0 0 0 0 0 0 0 0 0 0 0 0 0 0 0 0 0 0
0 0 0 0 0 0 0 0 0 0 0 0 0 0 0 0 0 0 0 0 0 0 0 0 0 0 0 0 0 0 0 0 0 0 0 0 0 0 0 0 0 0 0
0 0 0 0 0 0 0 0 0 0 0 0 0 0 0 0 0 0 0 0 0 0 0 0 0 0 0 0 0 0 0 0 0 0 0 0 0 0 0 0 0 0 0
0 0 0 0 0 0 0 0 0 0 0 0 0 0 0 0 0 0 0 0 0 0 0 0 0 0 0 0 0 0 0 0 0 0 0 0 0 0 0 0 0 0 0
0 0 0 0 0 0 0 0 0 0 0 0 0 0 0 0 0 0 0 0 0 0 0 0 0 0 0 0 0 0 0 0 0 0 0 0 0 0 0 0 0 0 0
0 0 0 0 0 0 0 0 0 0 0 0 0 0 0 0 0 0 0 0 0 0 0 0 0 0 0 0 0 0 0 0 0 0 0 0 0 0 0 0 0 0 0
0 0 0 0 0 0 0 0 0 0 0 0 0 0 0 0 0 0 0 0 0 0 0 0 0 0 0 0 0 0 0 0 0 0 0 0 0 0 0 0 0 0 0
0 0 0 0 0 0 0 0 0 0 0 0 0 0 0 0 0 0 0 0 0 0 0 0 0 0 0 0 0 0 0 0 0 0 0 0 0 0 0 0 0 0 0
0 0 0 0 0 0 0 0 0 0 0 0 0 0 0 0 0 0 0 0 0 0 0 0 0 0 0 0 0 0 0 0 0 0 0 0 0 0 0 0 0 0 0
0 0 0 0 0 0 0 0 0 0 0 0 0 0 0 0 0 0 0 0 0 0 0 0 0 0 0 0 0 0 0 0 0 0 0 0 0 0 0 0 0 0 0
0 0 0 0 0 0 0 0 0 0 0 0 0 0 0 0 0 0 0 0 0 0 0 0 0 0 0 0 0 0 0 0 0 0 0 0 0 0 0 0 0 0 0
0 0 0 0 0 0 0 0 0 0 0 0 0 0 0 0 0 0 0 0 0 0 0 0 0 0 0 0 0 0 0 0 0 0 0 0 0 0 0 0 0 0 0
0 0 0 0 0 0 0 0 0 0 0 0 0 0 0 0 0 0 0 0 0 0 0 0 0 0 0 0 0 0 0 0 0 0 0 0 0 0 0 0 0 0 0
0 0 0 0 0 0 0 0 0 0 0 0 0 0 0 0 0 0 0 0 0 0 0 0 0 0 0 0 0 0 0 0 0 0 0 0 0 0 0 0 0 0 0
0 0 0 0 0 0 0 0 0 0 0 0 0 0 0 0 0 0 0 0 0 0 0 0 0 0 0 0 0 0 0 0 0 0 0 0 0 0 0 0 0 0 0
0 0 0 0 0 0 0 0 0 0 0 0 0 0 0 0 0 0 0 0 0 0 0 0 0 0 0 0 0 0 0 0 0 0 0 0 0 0 0 0 0 0 0
0 0 0 0 0 0 0 0 0 0 0 0 0 0 0 0 0 0 0 0 0 0 0 0 0 0 0 0 0 0 0 0 0 0 0 0 0 0 0 0 0 0 0
0 0 0 0 0 0 0 0 0 0 0 0 0 0 0 0 0 0 0 0 0 0 0 0 0 0 0 0 0 0 0 0 0 0 0 0 0 0 0 0 0 0 0
0 0 0 0 0 0 0 0 0 0 0 0 0 0 0 0 0 0 0 0 0 0 0 0 0 0 0 0 0 0 0 0 0 0 0 0 0 0 0 0 0 0 0
0 0 0 0 0 0 0 0 0 0 0 0 0 0 0 0 0 0 0 0 0 0 0 0 0 0 0 0 0 0 0 0 0 0 0 0 0 0 0 0 0 0 0
0 0 0 0 0 0 0 0 0 0 0 0 0 0 0 0 0 0 0 0 0 0 0 0 0 0 0 0 0 0 0 0 0 0 0 0 0 0 0 0 0 0 0
0 0 0 0 0 0 0 0 0 0 0 0 0 0 0 0 0 0 0 0 0 0 0 0 0 0 0 0 0 0 0 0 0 0 0 0 0 0 0 0 0 0 0
0 0 0 0 0 0 0 0 0 0 0 0 0 0 0 0 0 0 0 0 0 0 0 0 0 0 0 0 0 0 0 0 0 0 0 0 0 0 0 0 0 0 0
0 0 0 0 0 0 0 0 0 0 0 0 0 0 0 0 0 0 0 0 0 0 0 0 0 0 0 0 0 0 0 0 0 0 0 0 0 0 0 0 0 0 0
0 0 0 0 0 0 0 0 0 0 0 0 0 0 0 0 0 0 0 0 0 0 0 0 0 0 0 0 0 0 0 0 0 0 0 0 0 0 0 0 0 0 0
0 0 0 0 0 0 0 0 0 0 0 0 0 0 0 0 0 0 0 0 0 0 0 0 0 0 0 0 0 0 0 0 0 0 0 0 0 0 0 0 0 0 0
Wind_Speed
6 5 3 2 1 2 4 5 6 7 9 10 11 11 12 12 11 11 10 11 11 9 7 7 5 4 3 3 2 2 2 3 4 3 3 3 3 5 7 5 6 6 8
5 3 2 1 2 3 5 6 8 9 10 11 12 12 12 12 11 12 12 11 10 9 7 7 5 3 3 2 2 2 2 3 4 5 3 3 5 6 6 7 8 8 7
5 4 4 4 5 6 7 8 9 10 11 11 11 12 12 12 12 12 12 11 10 8 7 6 4 3 2 1 2 2 3 3 3 4 4 3 4 5 5 6 8 8 10
5 6 6 6 7 8 8 9 10 11 12 12 12 13 13 12 12 12 12 11 9 8 6 5 3 2 2 2 2 3 3 3 3 4 5 4 4 5 4 5 8 5 8
7 8 8 8 9 10 10 11 11 12 13 13 14 13 12 11 10 11 10 9 8 7 5 3 2 1 2 2 2 3 3 3 3 4 5 5 4 4 5 5 9 8 8
9 9 9 10 11 12 12 12 13 13 13 13 13 13 11 10 15 15 10 8 7 6 4 3 2 2 3 5 7 8 7 4 4 4 4 6 7 6 6 7 9 10 9
9 10 10 11 12 12 13 13 13 12 12 12 12 12 11 12 15 14 12 7 6 5 3 2 1 1 3 3 6 9 9 12 12 7 7 7 8 7 8 10 9 10 11
9 9 10 11 12 12 12 12 11 10 10 10 10 10 9 10 13 12 11 6 5 4 2 1 1 2 4 6 5 5 5 6 9 7 7 9 9 9 9 10 10 9 9
8 8 9 9 11 11 11 10 9 9 9 8 8 8 8 7 9 9 8 4 3 2 1 0 1 3 9 11 5 4 6 6 11 15 16 15 19 20 16 7 6 8 10
8 8 8 9 10 10 10 9 8 8 8 8 8 7 6 4 5 7 7 3 2 1 0 1 5 7 10 11 5 4 6 7 7 8 9 11 10 12 15 7 4 6 8
7 8 9 9 9 9 9 8 8 8 8 8 7 6 5 5 6 7 7 2 1 0 1 2 3 10 11 13 11 4 8 10 4 4 6 7 7 6 6 5 5 6 9
7 8 8 8 7 7 8 8 7 7 7 6 6 5 4 5 6 6 6 5 3 0 2 3 4 12 13 13 9 11 14 10 3 5 6 6 7 7 7 7 8 8 10
8 8 8 8 7 7 7 6 5 5 4 4 4 3 3 3 4 6 7 7 8 3 2 7 10 12 12 8 10 12 9 4 4 5 7 7 6 7 8 8 8 8 10
8 7 6 7 7 6 5 4 4 4 4 3 3 2 2 2 2 2 2 3 5 5 3 5 9 10 8 9 8 6 4 4 5 6 7 8 8 7 7 6 8 8 9
7 6 6 6 6 5 5 4 4 2 3 3 2 1 1 1 3 7 4 3 3 3 3 2 3 4 4 4 4 4 4 4 5 6 7 8 9 9 8 6 5 6 8
6 5 4 4 4 4 4 4 8 6 8 7 4 2 1 3 7 8 9 10 10 10 5 2 4 4 5 5 6 6 6 5 6 6 7 8 8 9 10 8 7 8 10
6 5 4 4 4 3 3 3 3 4 7 8 8 7 6 7 8 9 9 9 8 7 3 3 4 4 5 5 5 6 7 7 6 7 7 8 8 9 9 10 9 9 10
6 6 5 3 3 3 3 2 2 2 2 3 6 8 8 8 8 8 9 6 4 4 2 3 4 5 5 6 6 6 7 7 7 7 8 8 8 9 9 10 9 10 11
5 4 4 3 3 3 3 3 2 2 2 2 2 4 7 7 7 8 7 2 3 4 4 4 5 5 6 6 6 6 7 8 8 8 8 9 8 9 10 10 10 15 14
4 8 6 4 3 3 2 2 2 1 1 2 2 3 3 3 2 4 3 3 3 4 5 5 6 6 6 6 6 7 7 8 8 8 9 9 8 9 10 12 11 11 11
4 5 7 4 3 2 2 1 1 0 1 2 3 4 6 1 2 4 4 4 4 5 5 6 6 6 6 6 6 7 9 9 8 8 9 9 9 10 10 10 11 11 11
4 4 3 3 2 2 1 1 0 1 2 3 3 4 8 3 3 4 4 5 5 5 5 6 6 6 6 7 7 8 8 9 9 9 9 10 10 10 10 10 10 10 11
5 4 3 2 2 2 1 1 1 1 2 3 4 4 4 3 4 4 5 5 5 6 5 6 7 7 7 7 7 8 9 10 10 10 11 11 11 10 10 11 12 12 12
5 4 4 3 2 1 1 1 2 2 3 3 4 4 4 4 5 6 6 6 6 7 6 6 7 10 13 11 8 8 9 11 11 11 14 13 12 11 10 10 11 12 12
4 4 3 3 2 2 2 2 2 2 3 4 4 4 4 5 6 6 6 6 7 8 9 8 7 9 11 14 13 12 16 21 20 14 12 11 12 12 11 11 11 12 12
4 4 3 3 2 2 2 2 2 3 3 4 4 4 5 5 6 6 6 6 7 7 9 8 9 11 13 13 14 17 21 23 23 22 13 9 10 10 11 10 12 11 12
Wind_Direction
303 291 278 265 221 167 158 152 141 132 135 137 136 134 133 132 131 127 125 123 120 117 115 116 116 121 121 118 122 147 176 179 231 258 249 260 270 276 288 286 279 275 282
322 324 330 34 103 114 118 120 123 127 130 130 130 128 127 126 125 124 123 121 121 119 114 111 112 112 109 122 156 192 205 203 220 261 265 265 262 270 274 280 290 291 284
7 27 42 60 81 93 103 111 116 119 120 119 120 120 119 117 114 112 112 110 108 109 109 112 117 118 131 165 198 218 226 229 216 241 265 254 262 270 278 278 279 282 286
37 54 61 66 80 89 95 98 103 108 109 109 108 108 109 108 107 108 107 105 103 101 101 107 115 132 185 210 224 236 239 245 241 247 262 264 262 263 263 279 292 279 285
53 61 65 71 78 82 86 90 93 97 101 103 103 102 102 103 106 108 106 109 110 107 102 100 109 146 231 238 246 241 232 239 249 257 269 275 274 274 273 276 293 294 282
61 65 70 76 79 81 83 88 92 93 96 98 100 102 100 101 110 110 111 108 109 111 109 94 65 44 356 343 317 301 284 268 261 256 268 275 281 276 281 285 291 297 296
65 70 74 80 83 85 88 87 89 92 94 93 93 95 98 107 112 112 112 113 115 114 111 98 62 352 355 307 298 300 300 298 295 289 283 280 282 281 281 282 279 280 283
71 75 80 86 89 89 90 90 90 89 90 91 91 94 97 103 107 111 114 109 106 106 110 136 228 290 294 287 264 265 264 272 283 282 262 266 268 270 266 277 285 287 280
71 76 83 90 94 93 92 91 90 90 87 87 88 88 90 94 104 112 112 105 100 101 120 156 291 282 298 307 303 285 283 282 296 297 294 295 298 302 304 301 296 296 294
72 77 80 85 89 90 90 89 87 88 88 85 79 75 80 80 99 102 109 107 104 97 359 303 315 313 308 314 306 289 292 289 287 295 300 301 298 294 298 289 273 280 287
79 79 79 81 86 89 88 86 88 88 87 84 81 69 60 62 68 72 80 101 112 107 309 296 291 315 318 318 321 311 295 303 308 310 302 296 293 285 280 265 250 257 273
83 81 78 77 81 85 87 85 84 90 91 88 85 71 47 36 44 47 41 27 20 120 293 283 291 318 327 329 328 313 314 327 332 306 298 296 297 297 295 289 278 266 259
86 82 80 77 74 78 85 89 84 83 90 88 82 73 46 27 15 22 18 7 358 352 309 323 329 333 335 333 322 323 334 332 304 298 297 296 293 289 293 293 289 280 271
92 87 84 83 77 69 69 74 83 86 88 87 84 78 48 5 333 321 321 329 340 336 330 335 339 338 335 325 325 326 312 292 295 295 297 297 298 295 292 291 295 303 299
96 90 85 82 84 76 71 76 88 82 117 114 119 130 103 329 331 353 357 336 329 316 351 4 343 332 330 324 314 303 297 302 304 298 297 300 301 300 297 295 285 290 287
105 96 91 90 86 85 82 68 72 80 79 80 88 83 350 352 353 355 349 348 344 343 3 343 325 319 315 315 315 314 311 306 303 300 297 294 296 298 299 297 289 289 290
117 113 103 100 98 97 94 95 78 53 55 49 37 26 15 359 355 349 347 350 347 356 2 316 307 305 303 302 301 301 301 301 299 294 292 292 292 293 294 296 297 294 292
115 120 117 112 112 107 101 96 89 69 27 1 3 3 3 357 353 349 352 359 346 346 310 298 298 299 298 298 298 298 298 300 298 295 292 290 290 291 292 293 294 293 296
118 115 114 112 108 104 97 88 75 65 47 356 336 340 351 348 350 351 0 0 312 309 303 295 292 293 293 293 293 292 291 293 293 294 292 290 289 289 289 290 293 297 300
125 134 128 119 109 100 92 86 73 50 11 336 322 312 316 335 336 329 329 303 297 295 296 295 294 291 291 290 289 289 290 290 291 289 289 288 288 286 288 292 294 297 297
126 133 130 117 112 113 108 102 92 344 305 303 298 301 316 311 302 301 302 296 289 290 293 292 291 291 289 286 286 286 287 288 287 287 289 289 291 292 291 290 292 293 295
127 123 124 127 126 134 139 144 194 274 289 295 297 305 323 325 296 291 290 291 286 281 281 284 285 283 282 283 284 286 286 286 287 288 289 291 292 292 292 292 293 296 298
128 129 128 130 137 159 137 166 252 275 282 286 291 296 302 299 294 291 291 293 294 292 289 283 284 285 282 279 276 275 277 280 283 287 290 292 292 292 292 294 297 301 302
136 141 146 150 154 165 192 236 260 275 283 286 288 290 291 292 293 294 294 294 295 293 289 285 281 282 285 288 284 279 275 278 281 280 281 284 291 295 296 297 299 300 302
143 149 156 168 180 196 220 245 261 276 288 291 292 294 296 296 294 293 292 292 292 291 291 290 284 284 287 289 290 288 288 293 296 296 293 293 297 300 301 300 300 302 303
151 157 164 174 190 206 225 248 263 273 277 283 285 288 291 290 290 291 293 293 295 296 296 294 289 290 292 293 291 293 299 304 307 309 308 302 302 302 305 304 304 304 304